ION SCV002 LAURENTIUS

operational
NORAD ID: 47504 Int'l Des: 2021-006 Owner: DORBIT Country: I
LEOCIRCULARRETROGRADESSO

关于 ION SCV002 LAURENTIUS

正在加载描述...

实时位置

正在加载3D地球...

即将过境

高度历史

Altitude vs Time

uPlot chart will show altitude changes over time

两行轨道根数

1 47504U 21006CV 26061.01307729 .00015499 00000-0 37424-3 0 9994
2 47504 97.1139 65.4627 0013240 138.3684 221.8574 15.41175927283504
Epoch: Mar 2, 2026 • Age: 38 hours

当前状态

高度 452.3 km
速度 7.64 km/s
星下点 -2.32°S, 60.39°E
发射日期 Jan 24, 2021
运行时间 5.1 years
类型 other

技术详情

分类 Payload
质量 150.00 kg
干质量 150.00 kg
总质量 220.00 kg
长度 0.40 m
直径 0.40 m
跨度 0.40 m
形状 Box
制造商 DORBIT
平台类型 ION-SC
阶段状态 In Orbit
所有者/国家 DORBIT/I

大型星座

Loading constellations...